Location: Milton Keynes
(52.0316°N, 0.7531°W)
Time: 12:00:17
(UTC+01:00)

N. Korean satellite - Pass Details

Date: 25 January 2019
Orbit: 457 x 508 km, 97.2° (Epoch: 19 April)

Event Time Altitude Azimuth Distance (km) Brightness Sun altitude
Rises 05:55:46 0° 19° (NNE) 2,625 10.4 -17.8°
Reaches altitude 10° 05:58:00 10° 28° (NNE) 1,729 9.6 -17.5°
Maximum altitude 06:01:29 38° 97° (E) 787 8.2 -17.0°
Drops below altitude 10° 06:04:55 10° 167° (SSE) 1,691 9.6 -16.4°
Sets 06:07:04 0° 175° (S) 2,559 10.4 -16.1°
